map of RBA home
Great Circle Mapper logo
RBA - Airport
Location
City:  Rabat, Morocco
Name:Rabat-Salé
ICAO:GMME
IATA:RBA

Details
Type:Airport (Aerodrome, Airfield)
Use:Public/Civil, Military, International (customs port of entry)
Latitude:34°03'05"N (34.051467)
Longitude:6°45'05"W (-6.751518)
Datum:WGS 1984
Elevation:276 ft (84 m)
Variation:1.69°W (WMM2015 magnetic declination)
0.11° annual change
Runways:1
Longest:11483 × 148 ft (3500 × 45 m), paved

Time
Time Zone:UTC+0 (DST+1)
Local Time:

Weather
METAR:GMME 270300Z 24004KT 5000 SCT007 SCT016 21/19 Q1017 NOSIG
TAF:GMME 262300Z 2700/2806 22010KT 5000 SCT006 BKN016
TEMPO 2700/2705 14004KT 3000 BR BKN004 SCT010
BECMG 2706/2708 0800 FG BKN008 SCT015
BECMG 2709/2712 32010KT 5000 NSW NSC
TEMPO 2718/2724 04012KT 9999 SCT020

Related Locations
Nearby:
Farthest:KAT: 12360 mi / 19891 km
Kaitaia, NZ

Find:

   beyond  
but within

Other Information
Maps:
NOTAMs:
Links:
Sources:

  
flag of Morocco   

Sectional Chart

Flight Planning
at skyvector.com

Satellite Image

Google Maps Satellite view

 

Copyright © 2004-2016 Karl L. Swartz. All rights reserved.
The Great Circle Mapper name and logo are trademarks of the Great Circle Mapper.
All other trademarks mentioned herein belong to their respective owners.
Please see credits for attibutions and further copyright information.

  Follow gcmap on Facebook Follow gcmap on Twitter Follow gcmap on Google+ GCmap on LinkedIn

hCard Microformat

Geo Microformat